Tracking 25710 objects as of 6-Jul-2022
HD Live streaming from Space Station
objects crossing your sky now

APRIZESAT 1

Track APRIZESAT 1 now!
10-day predictions
APRIZESAT 1 is classified as:


NORAD ID: 28372
Int'l Code: 2004-025G
Perigee: 701.1 km
Apogee: 765.7 km
Inclination: 98.5 °
Period: 99.3 minutes
Semi major axis: 7104 km
RCS: 0.0588 m2 (small)
Launch date: June 29, 2004
Source: United States (US)
Launch site: TYURATAM MISSILE AND SPACE COMPLEX (TTMTR)

Messaging services.
aabbcc
Your satellite tracking list
Your tracking list is empty




NASA's NSSDC Master Catalog

Two Line Element Set (TLE):
1 28372U 04025G   22187.44323627  .00000072  00000-0  30748-4 0  9999
2 28372  98.4940 148.4754 0045455 216.7201 143.0876 14.49810368952855
Source of the keplerian elements: AFSPC